CAPE
595 700 867 1158 1208 1094 1175 1441 1468 1567 1754 1692 1733 1776 1881 2012 2158 2440 2362 2578 2568 2724 2966 2894 2880 2879 2964 3064 3125 3218 3150 3115 3049 2930 2425 2116 1792 1503 1361 1403 1394 1462 1335 1110 1054 1171 968 1165 1507 1486 1532 1528 1308 1168 1156 1140 1003 730 656 714 560 482 298
454 565 748 1026 1144 1188 1291 1436 1684 1655 1683 1687 1726 1876 1879 2161 2376 2344 2444 2676 2731 2798 3039 2905 2884 2910 3032 3111 3168 3194 3142 2977 2836 2530 2236 1951 1492 1454 1488 1444 1108 1180 1212 1122 1252 1208 1148 1072 1172 1434 1448 1342 1176 1116 959 1120 1093 894 460 711 605 648 585
434 486 638 873 1046 1199 1449 1477 1696 1697 1740 1626 1623 1820 2000 2365 2496 2418 2571 2722 2844 2925 3062 2981 2905 2965 3008 3176 3174 3190 3073 2886 2559 2262 1942 1802 1527 1460 1550 1422 985 993 858 987 1113 980 907 1000 1184 1314 1193 1127 1010 1055 992 1032 1106 916 786 827 710 580 634
586 552 654 956 1232 1492 1553 1465 1636 1676 1687 1606 1681 1801 2104 2606 2560 2605 2726 2687 2848 2963 3047 3068 2965 2936 3010 3106 3162 3164 3005 2760 2386 2035 1902 1794 1596 1528 1582 1336 835 746 795 719 645 736 697 868 898 1135 1003 975 954 846 899 773 622 878 934 992 830 688 678
699 650 635 834 958 1284 1349 1497 1661 1809 1700 1640 1790 2056 2341 2587 2582 2615 2665 2621 2645 2872 2906 3048 2916 2964 3023 3026 3046 3042 2878 2608 2184 1889 1796 1715 1612 1584 1627 1375 566 479 566 600 633 737 816 824 825 881 985 989 764 969 984 941 752 1008 870 1056 852 788 676
661 777 820 820 840 1126 1302 1410 1516 1724 1775 1746 1878 2155 2215 2223 2237 2243 2406 2624 2689 2786 2996 3066 3050 3034 3060 3014 3021 2934 2648 2380 2006 1780 1707 1637 1599 1616 1667 1482 666 442 592 637 466 556 808 793 780 720 632 591 455 480 536 718 751 792 880 1004 837 591 438
702 807 857 857 982 1083 1222 1289 1368 1593 1788 1874 1974 2125 1984 1940 2104 2133 2242 2512 2604 2807 2906 3006 3006 3008 3083 3046 3026 2951 2528 2188 1875 1800 1642 1591 1577 1642 1684 1494 822 492 482 553 382 455 574 730 644 601 528 456 514 445 505 780 668 802 825 822 785 888 804
818 866 982 1010 1020 1065 1163 1352 1480 1628 1859 2030 2110 2063 1981 1988 2116 2178 2282 2417 2499 2480 2711 2627 2914 3111 3166 3168 3009 2847 2489 2082 1878 1717 1579 1548 1613 1696 1740 1544 908 601 590 344 361 304 284 444 394 522 563 473 605 682 719 780 876 732 682 713 689 698 780
682 1022 932 820 962 971 1176 1547 1641 1862 2171 2329 2354 2332 2193 2226 2224 2287 2423 2509 2566 2574 2673 2637 2901 3123 3261 3189 2922 2738 2422 1946 1806 1611 1475 1549 1704 1766 1744 1560 971 422 356 296 211 250 223 198 243 483 486 411 465 620 675 839 844 782 670 635 706 730 732
750 936 1110 1005 992 1044 1452 1787 1954 2268 2535 2603 2564 2583 2493 2509 2480 2467 2527 2505 2537 2670 2794 2844 2898 3056 3253 3140 2845 2614 2241 1914 1770 1578 1488 1527 1726 1816 1768 1564 967 288 337 218 56 0 46 268 250 262 251 290 417 421 517 632 762 738 681 688 678 652 702
718 1114 1254 1103 1253 1450 1637 1663 2113 2466 2432 2664 2757 2654 2758 2755 2704 2619 2707 2650 2639 2781 2860 2984 2998 3050 3095 3047 2741 2388 2059 1869 1696 1560 1462 1496 1554 1760 1744 1533 964 148 208 101 88 8 28 104 59 126 113 135 238 335 397 495 543 580 529 529 589 648 620
1024 1077 1308 1330 1535 1626 1444 2051 2446 2538 2662 2718 2621 2584 2865 2888 2740 2683 2774 2828 2761 2793 2870 2965 3050 3022 3037 2884 2592 2213 1987 1820 1638 1488 1415 1348 1502 1688 1733 1482 1020 250 188 120 54 17 22 134 49 48 36 41 114 244 400 547 538 572 589 557 615 619 524
850 1168 1340 1132 1550 1710 2185 2148 2212 2446 2628 2562 2462 2644 2816 2722 2674 2644 2844 2874 2732 2772 2898 3055 3098 3096 2973 2770 2414 2153 2046 1864 1624 1425 1308 1170 1388 1614 1728 1602 913 219 140 90 28 5 3 48 54 85 15 76 121 157 292 361 379 550 655 658 662 643 633
657 763 979 1424 1502 1608 1800 2198 2411 2437 2544 2502 2573 2764 2688 2730 2760 2786 2892 2826 2770 2714 2808 2974 3096 3135 2968 2672 2338 2169 2085 1931 1697 1446 1254 1170 1188 1493 1669 1635 1088 353 320 162 27 38 10 38 48 38 46 32 180 243 255 318 366 553 677 672 624 628 702
419 573 886 1031 1500 1854 2010 2149 2386 2348 2418 2489 2499 2537 2615 2624 2673 2815 2855 2702 2804 2668 2742 2935 3136 3144 2956 2636 2346 2202 2093 1976 1782 1557 1216 1071 1111 1324 1440 1473 944 353 313 134 3 17 10 6 44 25 48 133 158 171 208 267 370 562 656 592 568 684 780
558 625 707 977 1342 1467 1868 2069 2332 2415 2436 2500 2406 2520 2479 2608 2749 2724 2696 2690 2718 2729 2696 3132 3226 3202 2894 2599 2418 2251 2108 2027 1902 1700 1426 1070 866 996 1056 1211 1197 679 184 5 73 242 89 71 70 26 129 184 140 154 218 335 469 319 9 95 641 1033 1025
638 674 728 1066 1555 1422 1685 1931 2129 2320 2362 2392 2398 2490 2506 2598 2558 2556 2364 2512 2552 2710 2835 3109 3274 3216 2862 2609 2412 2179 2116 2077 2019 1947 1798 1563 1208 866 870 1217 521 632 453 222 0 147 128 124 96 45 46 63 96 158 249 332 438 65 0 0 1 508 979
805 870 856 974 1131 1302 1552 1624 1922 2012 2111 2169 2286 2445 2468 2526 2481 2390 2263 2480 2546 2505 2690 2860 3005 3011 2836 2604 2347 2097 2095 2083 2061 2002 1928 1784 1650 1429 1298 1160 899 577 432 230 208 242 205 160 106 154 95 122 81 87 184 375 196 2 0 0 0 64 674
870 911 1024 1095 1234 1340 1295 1305 1564 1834 1833 1951 2000 2144 2204 2459 2262 2353 2424 2537 2618 2546 2842 2938 2983 2969 2803 2499 2224 2006 2018 2008 1996 1969 1886 1784 1666 1605 1538 1169 932 558 224 196 397 436 290 28 207 227 105 112 178 179 182 260 258 0 0 0 0 0 146
1016 900 835 831 1135 1217 1342 1413 1410 1595 1940 2096 2044 1962 2150 2071 2171 2388 2524 2689 2916 2945 2969 2962 2926 2874 2705 2435 2118 1908 1887 1884 1895 1889 1835 1743 1683 1638 1630 1624 1281 930 628 694 653 629 383 296 300 150 127 121 166 205 238 348 337 2 0 0 0 0 47
912 789 868 1145 1187 1034 1431 1546 1612 1693 1867 1755 1633 1940 2114 2060 2045 2338 2412 2598 2731 2907 2982 2892 2880 2678 2552 2256 1982 1759 1777 1804 1795 1796 1770 1723 1668 1589 1540 1574 1100 1191 1031 696 509 548 321 288 173 244 240 248 263 308 403 412 268 2 0 54 0 0 9
550 613 908 901 1243 1552 1677 1339 1514 1424 1701 1741 2053 1908 1820 2000 1875 1908 2304 2587 2726 2842 2796 2768 2692 2532 2296 2076 1727 1662 1698 1716 1727 1706 1717 1671 1586 1478 1460 1423 1157 1019 759 536 358 294 280 174 276 314 285 384 411 301 392 425 87 194 385 336 198 0 241
576 791 1120 1298 1120 1500 2028 1896 2012 1745 2203 1956 1810 1920 1887 2033 1864 2100 2380 2399 2580 2718 2620 2525 2486 2358 2090 1822 1558 1545 1562 1592 1605 1625 1620 1588 1497 1412 1368 1344 1378 975 706 442 361 278 201 182 260 321 304 342 476 508 567 752 593 353 388 376 350 70 636
572 784 1062 1177 2035 1990 2077 2119 2115 2090 1718 1818 2104 2475 2438 2137 2163 2375 2431 2535 2569 2526 2450 2302 2288 2155 1874 1680 1409 1412 1433 1437 1458 1492 1498 1515 1474 1386 1314 1292 1136 713 464 375 165 1 41 181 296 402 478 487 579 555 759 892 876 369 357 438 477 378 946
582 841 1143 1288 1518 1838 2123 2407 2290 2016 2203 2154 2060 1838 2039 2226 2336 2325 2473 2488 2380 2318 2238 2159 2128 1875 1676 1557 1312 1305 1308 1323 1365 1396 1417 1450 1414 1319 1214 1159 900 580 235 106 139 62 195 240 310 499 636 588 542 451 509 831 880 452 416 512 587 520 574
1339 1284 1413 1688 1898 2092 2047 1986 2064 2172 2042 1791 1501 1432 1804 1936 2088 2333 2346 2208 2020 2059 2102 1976 1846 1666 1508 1315 1261 1267 1266 1282 1302 1332 1358 1350 1337 1242 1088 933 707 407 106 114 144 203 331 427 453 613 691 676 654 610 628 714 1271 496 593 634 680 566 380
1787 1800 1733 1615 1532 1546 1694 1718 1834 1754 1577 1390 1315 1372 1552 1842 1956 1837 1740 1775 1878 1978 1888 1747 1551 1359 1285 1224 1237 1228 1220 1228 1222 1267 1264 1245 1213 1148 870 680 388 106 113 152 198 331 567 708 811 780 977 979 910 867 914 1059 1111 648 603 666 722 637 442
1484 1409 1396 1412 1410 1370 1344 1282 1295 1208 1114 1148 1200 1155 1339 1677 1786 1546 1577 1628 1816 1852 1506 1380 1280 1212 1141 1163 1142 1184 1170 1163 1197 1176 1186 1153 1107 1092 726 406 250 186 222 228 374 556 678 946 1200 1228 1199 1264 1006 984 848 433 550 633 759 641 376 406 477
1869 1665 1584 1500 1342 1302 1410 1476 1366 1148 882 993 1097 1334 1348 1582 1624 1551 1430 1746 1739 1301 1159 1176 1120 1116 1124 1161 1192 1173 1131 1102 1102 1122 1133 1122 1142 983 713 397 292 325 445 500 554 677 986 1257 1265 1184 1212 944 835 702 572 637 398 400 410 584 698 643 574
2250 1939 1508 1190 1097 1212 1383 1193 874 853 1012 1106 1148 1292 1388 1648 1653 1542 1678 1796 1235 1147 1104 1100 1150 1194 1206 1170 1179 1123 1086 1058 1033 1044 1032 1054 1060 1002 819 531 332 478 660 807 968 1187 1296 1351 1171 892 900 868 895 939 650 368 0 0 242 348 440 462 404
1653 1702 1639 1376 1096 1075 1174 1178 1021 977 1080 1227 1363 1508 1496 1652 1867 1696 1928 1400 1128 1078 1095 1184 1218 1243 1202 1181 1155 1092 1032 978 964 980 967 966 943 903 760 632 473 587 871 1096 1133 1340 1502 1365 1192 1220 1258 1058 839 893 764 550 356 153 50 71 226 168 44
1685 1650 1620 1471 1202 1036 1013 1061 1136 1175 1248 1319 1540 1638 1676 1706 1812 2124 1792 1213 1100 1104 1192 1234 1255 1234 1203 1164 1115 1048 955 900 869 864 852 825 788 786 770 708 505 548 836 858 998 1063 1134 1305 1245 1264 1111 958 905 803 735 468 296 102 0 0 0 0 0
2166 2070 2094 1823 1493 1335 1317 1232 1261 1372 1338 1482 1562 1531 1625 1559 1484 1700 1228 1122 1091 1145 1187 1198 1188 1175 1142 1100 1086 1040 950 851 810 785 764 748 751 770 779 736 596 522 629 758 916 1095 1190 1142 968 657 906 983 889 802 564 272 184 0 2 0 0 0 0
1873 1926 1500 1672 1597 1546 1589 1668 1616 1448 1360 1495 1479 1550 1474 1383 1312 1259 1166 1089 1141 1185 1214 1142 1030 981 959 975 991 1000 964 876 768 730 726 697 714 775 788 795 736 604 796 830 1008 1133 1160 964 742 760 944 931 788 768 383 64 2 2 18 0 0 50 130
1479 1509 1629 1754 1658 1716 1934 1670 1516 1393 1353 1336 1358 1378 1405 1257 1197 1154 1121 1140 1202 1297 1244 1064 872 836 858 777 803 858 876 857 810 773 903 948 716 746 700 771 784 882 650 458 758 976 974 887 735 777 782 852 866 891 740 517 226 88 2 7 127 159 113
1119 1176 1326 1305 1348 1414 1443 1472 1555 1345 1177 1139 1152 1176 1195 1191 1168 1147 1151 1212 1302 1310 1180 1011 928 927 940 877 851 779 740 741 856 764 749 710 589 589 626 699 791 827 770 718 638 517 559 635 852 658 692 613 707 633 555 492 514 0 0 136 140 116 18
1136 1138 1162 1166 1281 1347 1489 1389 1317 1282 1138 1058 946 983 1028 1120 1128 1170 1213 1304 1392 1203 1001 1002 922 782 743 698 666 689 766 660 720 765 768 621 70 427 452 476 477 493 497 408 392 467 440 462 444 322 262 386 352 149 7 68 7 113 100 0 0 0 0
841 960 1085 1172 1240 1263 1220 1177 1187 1128 1164 1003 911 1024 1002 1036 1099 1165 1272 1361 1220 875 974 912 877 816 733 691 725 700 827 659 603 461 319 243 158 439 472 488 396 85 0 0 0 0 228 277 298 346 350 331 250 171 111 0 99 68 19 0 0 0 0
Wind_Speed
7 9 10 10 12 15 17 17 18 17 16 15 14 15 16 16 16 17 17 19 19 19 20 21 22 20 19 16 17 17 18 19 20 22 24 24 25 27 28 29 31 32 33 33 32 32 32 33 33 31 30 28 27 27 27 26 24 23 22 22 21 20 20
11 11 13 12 14 15 15 16 18 17 18 17 16 17 16 18 19 19 19 21 22 22 22 23 22 19 17 16 16 18 19 20 22 24 26 26 27 28 30 31 31 32 32 32 33 33 35 36 35 33 32 30 29 28 28 28 26 24 23 23 22 22 22
13 12 11 11 13 14 16 17 18 19 20 21 20 19 19 19 20 21 21 22 22 22 22 22 21 19 17 16 17 18 20 22 24 27 28 29 31 32 31 31 31 31 31 32 33 34 36 38 37 36 35 34 32 31 29 29 28 27 25 25 24 23 23
16 16 15 14 15 16 19 20 21 21 22 25 25 24 22 20 20 19 19 20 21 20 19 18 18 18 17 17 17 18 21 24 26 27 29 30 32 33 33 33 32 32 32 33 34 36 38 39 40 39 39 39 38 35 32 30 29 29 27 26 26 25 24
18 19 16 16 16 15 16 17 19 22 24 26 25 24 22 20 19 16 15 15 16 17 16 16 16 15 14 15 15 18 23 26 27 27 29 30 32 33 35 37 37 36 35 35 35 37 39 42 43 42 42 41 40 38 35 33 31 30 28 28 27 27 26
19 20 18 17 16 16 17 19 23 27 27 27 27 25 22 21 19 18 15 13 12 12 12 14 14 14 15 16 17 20 23 25 27 30 31 33 34 34 37 39 40 38 37 37 37 37 40 42 44 44 42 42 40 39 37 36 34 32 30 29 29 28 27
18 19 16 15 15 16 18 20 23 26 27 25 24 23 22 19 18 16 13 12 13 13 13 13 12 13 13 16 18 22 25 27 29 32 33 36 37 37 38 39 40 40 39 39 39 40 40 42 44 45 42 41 42 41 38 37 36 34 32 30 29 29 28
16 17 17 16 16 18 18 21 23 26 27 24 22 22 21 17 13 12 12 11 12 12 12 13 13 14 15 17 19 23 25 28 29 33 35 38 39 39 39 39 39 40 41 42 42 42 42 44 45 44 43 43 44 42 37 35 33 31 30 29 30 28 29
17 19 20 16 16 17 19 23 25 28 30 27 23 20 19 15 12 11 13 12 12 14 14 15 16 15 16 19 22 25 26 28 31 34 37 39 40 41 40 39 38 40 42 42 44 43 45 45 45 43 43 46 46 39 32 29 28 28 28 29 29 28 27
20 21 20 17 17 20 22 25 26 27 27 23 19 16 15 13 12 11 12 13 13 16 17 17 17 17 20 23 25 27 27 29 33 38 39 39 39 43 43 40 39 40 41 42 nan nan nan 41 42 42 42 45 47 37 25 23 25 27 29 29 29 27 25
20 22 21 17 18 22 25 25 25 26 25 23 21 18 15 15 15 15 15 15 16 17 19 18 18 19 23 26 28 29 30 32 36 38 39 39 39 43 46 44 43 42 43 44 nan nan nan 37 nan 38 37 40 40 28 18 19 23 26 29 30 29 27 25
21 23 19 17 20 23 23 24 25 25 23 20 20 19 17 16 16 16 14 15 16 16 18 20 20 22 25 27 29 30 32 34 37 39 41 40 41 45 46 44 43 44 43 43 nan nan nan 31 nan nan nan nan 29 18 15 21 24 26 28 29 30 30 29
21 20 19 19 21 21 26 26 25 24 22 19 18 18 17 17 17 16 15 16 17 16 18 20 22 24 25 28 29 29 32 35 38 40 41 41 43 44 44 46 44 43 44 nan nan nan nan nan nan nan nan nan 19 15 20 23 24 27 29 30 30 32 34
23 19 18 22 22 22 22 25 26 24 21 18 16 16 16 16 16 16 16 17 17 18 19 21 24 25 27 28 27 29 33 36 39 41 42 44 45 43 44 47 45 43 45 42 nan nan nan nan nan nan nan nan 19 20 25 25 25 27 27 30 32 34 35
15 16 18 19 18 20 23 25 25 23 20 17 17 16 16 16 16 16 17 17 17 19 21 23 25 26 28 28 27 29 32 35 38 40 43 49 49 46 46 46 44 46 47 43 nan nan nan nan nan nan nan 22 23 24 27 29 29 29 28 30 33 34 32
14 17 17 15 16 18 20 23 25 23 20 18 19 18 17 17 18 18 19 19 19 21 22 25 27 27 28 28 28 30 33 37 40 43 47 50 48 51 54 49 44 46 46 nan nan 39 nan nan nan nan 21 23 26 27 29 30 31 29 nan nan 33 33 31
15 15 13 13 17 20 22 24 25 24 22 20 20 20 20 20 19 19 21 21 23 25 27 29 29 29 30 29 29 32 34 38 42 45 50 50 48 50 51 55 53 45 45 51 nan 27 24 29 nan nan nan nan nan 29 30 31 31 nan nan nan nan 31 29
15 15 15 17 20 22 25 26 27 25 23 23 22 23 23 24 23 24 25 26 28 30 31 32 33 33 33 33 33 35 37 40 43 46 49 50 51 50 51 53 51 46 51 53 38 23 31 34 27 25 nan 24 nan nan 29 30 29 nan nan nan nan nan 28
17 17 19 22 24 25 26 28 28 27 26 26 25 25 26 29 29 29 30 31 32 34 35 36 36 36 37 37 38 40 41 43 46 48 50 51 51 50 48 51 52 46 51 46 27 24 36 nan 27 28 26 24 25 26 26 26 29 nan nan nan nan nan 28
21 22 24 26 27 28 29 31 30 29 30 30 29 29 31 32 32 32 33 34 35 36 36 37 37 38 39 39 41 44 47 49 50 51 51 51 51 49 49 51 52 47 42 34 27 31 35 31 29 29 26 24 25 23 22 22 26 nan nan nan nan nan nan
25 25 27 31 33 34 34 34 33 33 33 33 33 32 33 32 32 34 36 36 36 36 38 37 38 39 40 41 45 49 51 52 53 53 52 53 53 50 50 51 51 49 43 37 36 38 35 30 30 29 26 25 24 23 21 19 23 nan nan nan nan nan nan
24 25 27 30 35 36 36 34 34 34 34 34 34 34 34 34 36 37 38 38 37 38 38 38 39 40 42 45 49 52 54 54 55 53 52 51 50 48 48 50 51 48 44 41 39 36 33 31 29 27 26 26 24 23 20 17 nan 25 25 28 32 nan 33
27 30 34 35 35 36 36 35 36 36 38 37 35 35 35 38 39 40 41 39 38 39 39 40 41 43 46 48 51 54 56 57 56 53 51 49 49 48 49 51 50 46 43 41 39 37 36 33 30 27 26 26 25 23 20 18 25 28 29 33 34 nan 32
35 38 38 38 41 44 43 43 42 41 38 37 36 37 39 41 42 42 41 40 40 41 41 42 44 47 49 51 54 57 59 58 55 51 48 48 48 48 49 50 46 44 43 42 40 nan nan 34 29 25 22 23 23 22 20 19 27 33 34 34 37 36 36
39 43 44 45 45 47 46 44 43 42 42 41 41 40 42 44 45 43 40 39 40 41 42 43 46 50 52 54 56 58 59 55 51 48 46 46 47 49 51 49 45 43 43 42 41 nan 37 32 26 22 19 19 20 21 19 19 29 36 36 37 39 39 38
45 47 48 50 51 49 48 45 45 44 43 44 44 44 46 46 45 44 43 42 41 41 41 45 48 52 55 57 58 57 55 51 48 46 44 45 46 48 49 47 44 43 42 41 40 40 36 31 26 20 17 17 21 21 21 23 30 35 36 38 39 39 39
47 48 50 51 51 49 47 44 44 45 46 45 45 44 45 46 48 48 47 45 42 41 43 48 52 55 58 60 58 54 52 48 46 45 44 44 46 47 46 44 42 42 40 40 40 39 35 30 24 18 15 19 22 23 25 30 37 38 37 37 37 38 41
52 54 54 54 51 49 46 44 45 47 47 46 46 44 45 48 51 51 50 45 42 44 47 51 54 58 60 58 54 50 48 46 45 44 43 44 44 43 41 40 40 39 39 39 39 37 31 26 22 19 18 23 26 27 34 42 41 35 39 40 40 44 45
52 51 51 50 48 43 43 44 46 47 48 48 49 47 47 49 51 51 49 45 46 48 52 55 58 59 57 52 47 45 45 44 45 43 41 42 42 40 39 39 39 39 39 39 36 29 24 23 24 22 22 23 29 37 42 37 35 40 43 43 43 47 47
53 51 52 52 50 47 50 50 50 53 53 53 52 52 50 47 48 49 48 48 49 53 56 59 58 55 50 46 43 44 44 44 44 42 41 42 40 39 39 39 39 39 40 39 34 27 25 28 28 24 22 26 35 40 39 37 nan nan 44 45 48 51 51
55 55 54 54 55 55 55 55 54 55 56 53 53 52 50 47 48 49 49 51 54 57 58 57 54 50 47 44 42 42 43 43 43 42 41 41 40 39 39 39 40 40 40 39 36 33 34 35 34 29 25 27 33 38 38 39 42 46 nan nan 52 52 nan
56 55 53 52 53 55 54 53 53 53 52 51 50 50 49 48 48 50 52 55 56 55 53 52 51 49 46 43 42 42 44 44 43 41 40 40 39 39 39 39 40 41 41 39 38 38 39 39 36 31 29 31 37 42 43 44 46 49 nan nan nan nan nan
49 47 46 48 47 49 48 49 50 50 49 49 49 49 49 50 51 53 56 54 52 50 49 48 48 46 45 44 43 44 43 43 42 40 39 38 38 38 38 39 40 40 41 40 40 42 41 40 37 33 32 35 40 43 46 48 48 nan nan nan nan nan nan
43 44 45 45 44 45 47 46 47 48 49 50 49 50 51 52 52 53 51 48 46 46 46 45 44 44 45 46 45 44 42 41 41 40 39 38 38 38 39 40 40 41 42 43 44 42 41 38 35 33 35 37 41 45 48 nan nan nan nan nan nan nan 47
45 46 46 45 43 43 43 44 46 47 47 47 47 47 49 49 48 47 46 44 44 44 43 44 45 45 46 45 44 43 42 40 41 40 40 41 43 43 42 41 41 41 44 44 42 41 39 38 36 35 36 38 41 43 44 45 44 nan nan nan 47 46 44
47 48 47 45 44 44 45 45 45 43 41 40 39 39 39 41 41 40 40 42 42 43 43 45 45 44 44 43 42 42 42 41 42 43 44 45 45 46 47 50 49 45 42 44 44 40 39 37 37 36 37 38 40 41 39 38 42 nan nan 50 48 46 nan
49 49 48 45 44 44 44 43 40 38 36 35 36 35 35 36 37 38 38 39 39 40 41 43 43 42 42 43 42 43 44 44 45 47 47 47 nan 46 47 48 51 54 51 46 44 42 41 39 34 32 34 36 39 43 nan nan nan 50 nan nan nan nan nan
52 48 43 39 37 36 36 36 34 31 30 32 33 34 35 35 36 37 37 36 36 37 39 41 43 43 44 44 46 48 46 45 47 49 49 48 48 48 49 50 51 nan nan nan nan nan 46 45 44 41 41 42 43 43 42 nan nan nan nan nan nan nan nan
Wind_Direction
357 18 7 353 342 342 340 341 348 346 338 329 320 317 310 302 300 295 301 306 315 316 312 313 318 321 327 321 325 327 331 329 324 325 323 326 327 324 324 322 322 320 319 320 321 320 319 317 317 317 315 314 314 314 312 310 308 306 306 306 306 306 307
347 7 7 356 353 351 348 346 345 341 337 333 327 324 314 310 302 302 303 305 309 312 308 311 317 321 322 320 320 333 336 334 328 324 326 326 325 322 322 320 320 320 319 318 315 314 315 315 315 315 313 312 313 313 312 310 309 308 307 306 306 306 307
354 3 1 349 350 346 342 342 342 340 337 336 334 328 326 321 316 316 308 305 307 305 303 309 317 319 316 320 329 337 335 330 328 330 332 330 327 324 321 320 320 320 320 317 313 312 313 313 312 310 310 310 311 310 309 310 309 309 308 306 306 307 308
355 359 356 345 339 331 333 341 344 342 340 340 337 337 335 332 327 320 313 310 307 303 307 309 310 316 318 328 338 334 331 330 329 331 333 329 325 323 322 321 320 320 319 319 316 313 311 311 310 307 305 306 308 308 307 308 308 309 309 306 304 305 306
352 351 342 337 340 327 328 336 341 340 340 340 337 333 334 336 332 326 319 313 314 318 322 316 310 315 318 332 327 323 325 330 330 331 328 324 324 324 325 324 323 324 323 319 315 311 310 310 308 305 302 302 305 305 305 304 304 304 305 305 302 302 303
339 337 337 336 334 330 331 339 344 341 337 336 335 334 336 339 339 348 344 329 325 323 314 316 321 323 331 336 328 319 321 327 329 328 324 321 323 324 326 324 323 324 321 318 313 312 309 306 306 305 303 300 301 304 305 304 303 300 298 299 300 300 301
325 330 324 320 323 325 328 334 337 335 333 333 331 329 334 336 341 351 348 343 337 329 328 329 327 325 333 327 326 323 326 329 328 328 323 322 324 325 325 322 321 321 318 313 314 312 309 305 305 305 304 300 298 300 300 303 304 296 290 293 297 297 301
310 312 316 313 314 315 317 320 322 323 324 325 325 330 335 336 338 344 347 349 345 341 331 335 329 333 338 326 318 327 331 331 328 326 323 324 324 326 324 319 319 318 314 317 315 313 311 310 307 308 307 304 301 298 298 302 302 296 291 293 296 298 297
297 298 303 302 296 299 301 306 312 317 322 328 333 333 338 339 340 342 349 348 343 340 342 343 344 340 327 318 318 330 331 327 328 328 327 327 324 325 320 319 318 315 316 315 313 312 312 314 313 310 308 305 303 301 302 301 297 293 293 294 295 296 298
287 290 296 290 277 274 280 291 300 304 313 320 324 327 336 339 339 341 344 345 341 344 346 347 346 338 326 321 326 331 327 327 328 330 331 330 325 323 319 316 313 312 313 310 nan nan nan 314 311 311 310 308 307 310 305 298 294 293 293 293 291 292 297
274 278 282 287 276 274 280 290 300 305 312 319 324 327 333 338 339 341 341 343 345 344 347 345 341 335 327 326 328 327 325 327 327 331 332 331 325 322 314 313 312 313 314 314 nan nan nan 317 nan 314 311 311 314 313 301 297 302 300 295 291 287 289 295
267 276 284 286 277 278 293 289 288 295 304 309 317 325 329 332 336 338 336 341 342 342 342 344 339 337 329 327 327 325 328 329 330 334 334 328 322 318 315 314 314 315 315 319 nan nan nan 321 nan nan nan nan 319 310 295 296 303 303 297 292 286 283 289
260 266 274 284 283 277 269 276 294 301 303 311 320 322 324 330 332 333 331 336 341 340 337 337 337 335 331 329 330 327 333 333 333 333 332 323 315 311 311 313 315 318 318 nan nan nan nan nan nan nan nan nan 310 295 291 297 303 303 299 295 289 281 284
248 255 264 266 270 277 286 285 287 294 302 305 308 309 314 322 325 325 326 331 336 339 337 335 339 336 334 332 330 331 336 336 332 330 325 315 307 314 316 312 313 315 313 310 nan nan nan nan nan nan nan nan 299 288 290 298 303 305 303 300 293 285 287
260 265 268 277 281 277 279 287 290 294 297 299 301 306 314 317 322 322 322 328 331 336 342 340 338 340 339 334 332 333 332 328 326 326 318 316 322 321 309 309 312 315 314 308 nan nan nan nan nan nan nan 294 291 289 292 298 301 301 302 301 297 293 295
257 264 277 288 294 293 289 291 292 295 296 299 308 310 312 315 318 324 328 327 324 326 332 328 331 332 332 333 333 327 324 325 324 324 322 323 326 322 316 313 315 312 313 nan nan 309 nan nan nan nan 307 295 293 293 295 298 295 299 nan nan 297 297 296
264 271 282 287 286 291 290 292 295 298 301 306 313 317 315 313 312 316 326 323 322 322 322 320 322 322 324 327 325 322 322 325 328 326 327 327 323 316 315 319 315 312 311 312 nan 306 324 328 nan nan nan nan nan 299 300 297 293 nan nan nan nan 300 297
275 277 285 291 289 286 286 293 297 304 309 310 311 312 310 308 312 318 325 320 323 325 322 322 321 321 321 322 319 321 324 326 327 328 328 325 323 319 313 316 316 316 313 306 297 306 331 333 324 322 nan 301 nan nan 301 297 297 nan nan nan nan nan 300
281 280 284 288 289 289 293 298 302 306 304 301 302 305 307 304 308 317 319 322 325 323 322 321 319 317 317 317 320 323 324 323 325 325 327 324 322 315 310 312 315 317 318 315 305 313 334 nan 325 321 313 303 301 302 302 300 300 nan nan nan nan nan 303
264 273 281 285 285 288 290 288 289 293 295 294 295 295 295 306 313 314 313 314 315 320 320 320 319 317 315 313 318 321 322 322 322 322 324 322 318 314 314 314 318 320 315 310 312 327 335 333 326 317 312 304 298 298 302 303 300 nan nan nan nan nan nan
252 266 275 276 277 279 278 281 282 283 284 291 296 296 298 302 303 301 304 308 313 315 316 318 318 316 313 312 313 315 318 319 319 319 319 318 319 315 316 314 319 319 316 317 322 328 333 330 323 317 311 303 299 304 308 302 303 nan nan nan nan nan nan
267 268 268 269 273 273 276 280 282 286 290 290 289 290 294 296 297 299 301 305 308 309 313 314 315 314 311 309 310 313 315 317 318 321 315 315 313 310 307 313 319 320 320 322 324 327 329 327 322 318 311 303 302 308 310 300 nan 305 300 293 292 nan 289
261 259 251 249 258 264 266 272 276 280 279 280 282 284 286 286 290 294 297 302 305 306 308 310 312 311 309 309 310 312 313 315 319 317 313 314 313 311 310 313 317 320 320 322 325 329 332 331 327 319 310 304 305 311 304 293 296 299 294 293 293 nan 291
248 249 252 255 252 258 261 263 266 269 274 276 273 272 274 278 285 291 296 298 300 303 305 308 310 307 307 309 310 312 312 312 313 312 313 312 314 311 308 311 315 318 318 321 326 nan nan 330 327 321 309 306 312 313 306 298 296 296 293 293 292 294 298
248 246 248 253 259 263 264 263 267 269 267 268 268 268 272 278 284 288 290 291 295 299 303 305 305 305 307 307 309 311 311 311 311 311 312 312 311 309 310 314 317 317 315 320 325 nan 327 327 325 317 310 315 323 318 312 298 290 293 293 292 292 298 301
250 249 249 251 252 255 258 261 263 262 263 264 266 270 275 280 283 284 285 287 292 296 299 302 303 304 305 306 307 309 309 308 309 309 310 309 307 304 307 310 313 315 316 322 327 328 329 328 323 317 314 322 327 318 306 296 288 291 294 292 294 306 307
246 249 251 251 252 254 254 253 256 260 263 267 271 273 277 280 280 281 284 288 292 296 299 301 302 304 305 305 305 306 307 306 307 307 305 304 301 301 307 309 311 312 317 324 327 327 327 327 319 310 306 314 318 312 306 298 292 290 296 294 301 308 305
252 249 249 252 255 258 258 258 261 264 265 267 269 272 275 278 280 284 287 288 293 297 299 302 303 304 305 306 304 304 305 304 302 304 303 300 301 304 306 307 309 312 319 323 325 324 324 321 318 310 298 296 301 304 302 295 300 299 295 297 302 304 306
258 258 259 259 257 257 260 259 260 261 264 266 268 270 271 274 279 284 286 289 294 297 300 301 303 304 305 305 305 305 305 305 306 307 303 301 305 307 307 305 307 312 317 322 325 322 316 319 320 308 292 287 291 296 299 301 297 289 295 301 304 304 304
249 249 249 247 247 248 253 258 261 263 265 269 271 271 271 274 279 284 287 291 295 298 299 301 302 303 304 303 304 304 305 305 306 308 304 303 304 306 307 309 311 314 317 320 319 313 310 311 314 308 295 290 292 297 301 295 nan nan 297 301 301 301 301
243 243 243 245 249 253 256 261 266 266 267 269 272 274 277 281 284 287 289 293 297 299 299 299 299 301 301 300 301 302 302 303 304 306 304 305 306 306 306 311 311 313 314 311 312 309 306 308 310 307 299 294 294 296 296 293 289 292 nan nan 300 300 nan
248 250 252 257 261 263 265 265 265 265 266 269 273 277 281 284 285 287 289 293 296 296 296 296 297 297 297 297 299 301 301 302 303 305 304 304 304 305 303 308 311 313 311 309 308 307 305 307 308 305 299 293 289 290 293 293 292 294 nan nan nan nan nan
248 249 252 257 262 267 265 264 264 266 269 273 277 280 282 284 284 285 289 292 293 294 294 294 294 293 294 296 297 298 299 299 299 299 301 303 303 303 305 306 308 310 310 310 306 302 304 304 303 297 292 291 291 294 297 296 296 nan nan nan nan nan nan
241 243 242 244 249 255 257 259 265 271 276 279 282 283 283 284 285 287 289 289 290 290 290 291 291 292 293 296 297 297 297 297 299 300 297 299 301 302 303 304 306 307 307 305 302 301 302 302 298 293 291 291 293 294 295 nan nan nan nan nan nan nan 296
241 243 244 242 243 247 254 262 269 274 278 280 282 284 283 283 284 286 287 287 287 287 289 290 291 291 292 294 295 295 294 295 295 296 296 293 286 282 282 286 291 294 297 292 297 300 301 300 295 294 292 292 291 292 293 293 295 nan nan nan 293 294 297
246 246 246 247 249 252 258 264 270 274 276 279 283 285 285 284 283 283 284 284 286 289 290 291 291 291 291 292 293 292 293 292 293 292 289 289 288 289 287 283 284 285 291 295 289 284 282 283 290 286 289 292 290 286 290 290 286 nan nan 290 290 286 nan
250 251 252 254 257 260 263 266 269 272 277 281 283 285 285 284 282 281 281 284 287 291 290 290 289 290 290 290 290 290 291 291 291 287 287 288 nan 292 293 294 289 282 281 284 286 286 284 285 284 280 277 286 292 284 nan nan nan 290 nan nan nan nan nan
250 251 251 253 256 261 265 266 270 274 278 280 282 283 284 284 282 281 281 283 286 287 287 289 289 289 288 289 287 286 289 289 289 288 289 289 290 292 294 293 293 nan nan nan nan nan 284 285 285 287 289 287 288 291 286 nan nan nan nan nan nan nan nan